Radiation Dose at Monitoring Post of Fukushima Daini Nuclear Power Station
Date,Time,MP-1(microSv/h),MP-2(microSv/h),MP-3(microSv/h),MP-4(microSv/h),MP-5(microSv/h),MP-6(microSv/h),MP-7(microSv/h),Wind Direction,Wind Velocity(m/s),Rain
2015/11/12,00:00,0.495,0.276,0.501,0.464,0.445,0.226,0.196,north-northwest,6.4,No
2015/11/12,00:10,0.497,0.277,0.501,0.460,0.444,0.226,0.196,north-northwest,6.6,No
2015/11/12,00:20,0.497,0.277,0.504,0.465,0.443,0.225,0.196,north-northwest,6.8,No
2015/11/12,00:30,0.494,0.277,0.501,0.465,0.444,0.227,0.196,north-northwest,7.2,No
2015/11/12,00:40,0.497,0.277,0.502,0.463,0.443,0.226,0.196,north-northwest,7.2,No
2015/11/12,00:50,0.495,0.277,0.504,0.465,0.444,0.225,0.196,north-northwest,7.2,No
2015/11/12,01:00,0.495,0.276,0.502,0.464,0.443,0.224,0.196,north-northwest,7.5,No
2015/11/12,01:10,0.500,0.277,0.503,0.463,0.444,0.226,0.195,north-northwest,7.5,No
2015/11/12,01:20,0.497,0.278,0.504,0.466,0.443,0.224,0.195,north-northwest,7.1,No
2015/11/12,01:30,0.498,0.276,0.502,0.463,0.443,0.225,0.196,north-northwest,6.9,No
2015/11/12,01:40,0.498,0.277,0.505,0.462,0.443,0.226,0.195,north-northwest,5.9,No
2015/11/12,01:50,0.496,0.278,0.502,0.464,0.443,0.225,0.196,north-northwest,5.8,No
2015/11/12,02:00,0.498,0.276,0.499,0.465,0.446,0.225,0.196,north,6.4,No
2015/11/12,02:10,0.497,0.277,0.504,0.463,0.443,0.225,0.196,north,6.1,No
2015/11/12,02:20,0.495,0.276,0.501,0.465,0.444,0.226,0.195,north-northwest,5.4,No
2015/11/12,02:30,0.499,0.276,0.501,0.464,0.445,0.224,0.196,north,5.8,No
2015/11/12,02:40,0.495,0.276,0.504,0.463,0.443,0.226,0.196,north,5.5,No
2015/11/12,02:50,0.496,0.278,0.502,0.464,0.442,0.225,0.195,north,6.2,No
2015/11/12,03:00,0.497,0.277,0.503,0.463,0.444,0.225,0.195,north-northwest,6.5,No
2015/11/12,03:10,0.494,0.276,0.502,0.465,0.443,0.224,0.195,north,6.5,No
2015/11/12,03:20,0.497,0.277,0.501,0.466,0.444,0.225,0.195,north-northwest,6.7,No
2015/11/12,03:30,0.497,0.277,0.503,0.463,0.445,0.226,0.196,north,6.5,No
2015/11/12,03:40,0.495,0.276,0.505,0.464,0.444,0.226,0.195,north,6.2,No
2015/11/12,03:50,0.496,0.278,0.501,0.464,0.443,0.225,0.195,north,6.1,No
2015/11/12,04:00,0.498,0.277,0.505,0.463,0.444,0.226,0.197,north,5.9,No
2015/11/12,04:10,0.494,0.276,0.503,0.462,0.444,0.225,0.196,north,6.4,No
2015/11/12,04:20,0.500,0.277,0.500,0.465,0.442,0.226,0.195,north-northwest,6.7,No
2015/11/12,04:30,0.495,0.276,0.504,0.463,0.443,0.226,0.195,north-northwest,6.5,No
2015/11/12,04:40,0.497,0.277,0.504,0.464,0.444,0.226,0.196,north-northwest,6.5,No
2015/11/12,04:50,0.499,0.277,0.501,0.466,0.442,0.225,0.195,north-northwest,6.1,No
2015/11/12,05:00,0.497,0.277,0.504,0.465,0.444,0.225,0.196,north-northwest,5.7,No
2015/11/12,05:10,0.497,0.277,0.503,0.463,0.444,0.226,0.195,north-northwest,6.5,No
2015/11/12,05:20,0.499,0.277,0.503,0.463,0.442,0.225,0.196,north-northwest,5.8,No
2015/11/12,05:30,0.497,0.276,0.504,0.465,0.443,0.224,0.195,north,6.4,No
2015/11/12,05:40,0.497,0.276,0.504,0.463,0.445,0.226,0.196,north,6.4,No
2015/11/12,05:50,0.499,0.276,0.502,0.464,0.443,0.225,0.196,north-northwest,6.8,No
2015/11/12,06:00,0.497,0.277,0.505,0.463,0.442,0.225,0.196,north-northwest,6.8,No
2015/11/12,06:10,0.498,0.276,0.503,0.464,0.444,0.225,0.196,north-northwest,7.2,No
2015/11/12,06:20,0.499,0.276,0.502,0.462,0.443,0.225,0.195,north-northwest,7.0,No
2015/11/12,06:30,0.495,0.278,0.504,0.466,0.442,0.226,0.195,north-northwest,7.6,No
2015/11/12,06:40,0.498,0.277,0.502,0.464,0.445,0.226,0.196,north-northwest,7.3,No
2015/11/12,06:50,0.497,0.276,0.501,0.462,0.443,0.225,0.196,north-northwest,7.1,No
2015/11/12,07:00,0.495,0.278,0.505,0.465,0.444,0.225,0.196,north-northwest,6.7,No
2015/11/12,07:10,0.499,0.277,0.503,0.464,0.445,0.226,0.196,north-northwest,7.5,No
2015/11/12,07:20,0.497,0.275,0.503,0.462,0.444,0.225,0.196,north-northwest,7.0,No
2015/11/12,07:30,0.496,0.277,0.505,0.463,0.443,0.225,0.196,north-northwest,8.3,No
2015/11/12,07:40,0.498,0.277,0.503,0.461,0.443,0.226,0.196,north,6.8,No
2015/11/12,07:50,0.496,0.276,0.502,0.461,0.441,0.227,0.194,north-northwest,5.6,No
2015/11/12,08:00,0.496,0.278,0.503,0.463,0.443,0.226,0.195,north,6.8,No
2015/11/12,08:10,0.499,0.276,0.502,0.462,0.446,0.227,0.194,north,6.7,No
2015/11/12,08:20,0.497,0.276,0.503,0.464,0.443,0.225,0.195,north,6.7,No
2015/11/12,08:30,0.499,0.277,0.503,0.463,0.444,0.226,0.196,north-northwest,6.0,No
2015/11/12,08:40,0.500,0.278,0.500,0.462,0.444,0.226,0.196,north,5.6,No
2015/11/12,08:50,0.496,0.275,0.505,0.463,0.444,0.225,0.195,north,7.5,No
2015/11/12,09:00,0.500,0.277,0.502,0.464,0.444,0.226,0.196,north,5.9,No
2015/11/12,09:10,0.496,0.274,0.500,0.459,0.446,0.225,0.195,north,5.3,No
2015/11/12,09:20,0.497,0.276,0.505,0.464,0.444,0.227,0.197,north,5.9,No
2015/11/12,09:30,0.498,0.275,0.501,0.460,0.445,0.225,0.194,north,4.6,No
2015/11/12,09:40,0.496,0.278,0.504,0.465,0.443,0.227,0.196,north,4.8,No
2015/11/12,09:50,0.496,0.275,0.504,0.461,0.444,0.227,0.194,north,4.8,No
2015/11/12,10:00,0.494,0.277,0.501,0.466,0.442,0.225,0.197,north-northeast,6.6,No
2015/11/12,10:10,0.496,0.275,0.505,0.463,0.444,0.227,0.196,north,5.8,No
2015/11/12,10:20,0.496,0.278,0.502,0.464,0.443,0.227,0.196,north,6.9,No
2015/11/12,10:30,0.495,0.276,0.503,0.464,0.445,0.226,0.196,north-northeast,6.1,No
2015/11/12,10:40,0.497,0.278,0.500,0.460,0.442,0.226,0.197,north,5.6,No
2015/11/12,10:50,0.494,0.276,0.504,0.466,0.448,0.226,0.196,north-northeast,6.2,No
2015/11/12,11:00,0.498,0.278,0.503,0.460,0.443,0.225,0.196,north,5.6,No
2015/11/12,11:10,0.497,0.277,0.500,0.464,0.448,0.226,0.196,north,6.2,No
2015/11/12,11:20,0.499,0.279,0.504,0.465,0.444,0.225,0.197,north,6.3,No
2015/11/12,11:30,0.498,0.277,0.501,0.462,0.448,0.227,0.197,north,5.8,No
2015/11/12,11:40,0.500,0.277,0.506,0.466,0.442,0.225,0.196,north,7.5,No
2015/11/12,11:50,0.496,0.277,0.501,0.460,0.447,0.227,0.197,north-northwest,5.8,No
2015/11/12,12:00,0.500,0.278,0.504,0.464,0.443,0.227,0.195,north-northwest,5.4,No
2015/11/12,12:10,0.495,0.276,0.500,0.466,0.446,0.228,0.197,north-northeast,5.8,No
2015/11/12,12:20,0.502,0.276,0.500,0.461,0.442,0.226,0.196,north-northeast,6.2,No
2015/11/12,12:30,0.496,0.276,0.503,0.465,0.447,0.227,0.197,north-northeast,6.5,No
2015/11/12,12:40,0.498,0.278,0.497,0.464,0.442,0.226,0.196,north-northeast,6.9,No
2015/11/12,12:50,0.497,0.276,0.504,0.459,0.447,0.227,0.196,north-northeast,5.8,No
2015/11/12,13:00,0.500,0.278,0.501,0.466,0.444,0.227,0.197,north-northeast,6.1,No
2015/11/12,13:10,0.498,0.278,0.504,0.464,0.449,0.227,0.196,north,6.4,No
2015/11/12,13:20,0.498,0.276,0.503,0.469,0.446,0.227,0.196,north,7.8,No
2015/11/12,13:30,0.500,0.279,0.507,0.467,0.450,0.226,0.198,north-northeast,6.7,No
2015/11/12,13:40,0.499,0.278,0.503,0.471,0.446,0.227,0.198,north,6.9,No
2015/11/12,13:50,0.501,0.279,0.507,0.465,0.448,0.228,0.196,north,7.8,No
2015/11/12,14:00,0.497,0.278,0.505,0.468,0.446,0.227,0.196,north-northeast,7.6,No
2015/11/12,14:10,0.499,0.277,0.506,0.464,0.448,0.227,0.197,north-northeast,7.6,No
2015/11/12,14:20,0.500,0.278,0.505,0.468,0.447,0.225,0.198,north-northeast,9.1,No
2015/11/12,14:30,0.499,0.277,0.503,0.463,0.445,0.225,0.196,north,7.5,No
2015/11/12,14:40,0.503,0.279,0.505,0.470,0.449,0.225,0.197,north-northeast,7.1,No
2015/11/12,14:50,0.496,0.278,0.501,0.466,0.445,0.226,0.198,north-northeast,6.9,No
2015/11/12,15:00,0.502,0.278,0.506,0.468,0.447,0.226,0.197,north-northeast,6.4,No
2015/11/12,15:10,0.498,0.277,0.503,0.465,0.445,0.227,0.197,north,5.5,No
2015/11/12,15:20,0.498,0.278,0.507,0.467,0.445,0.226,0.197,north,5.9,No
2015/11/12,15:30,0.502,0.278,0.502,0.466,0.447,0.227,0.198,north,4.4,No
2015/11/12,15:40,0.499,0.277,0.507,0.467,0.446,0.227,0.197,north,4.7,No
2015/11/12,15:50,0.502,0.280,0.505,0.468,0.448,0.227,0.196,north,5.0,No
2015/11/12,16:00,0.497,0.278,0.503,0.464,0.447,0.228,0.198,north,3.1,No
2015/11/12,16:10,0.502,0.278,0.507,0.469,0.446,0.229,0.197,north,2.5,No
2015/11/12,16:20,0.501,0.279,0.503,0.466,0.448,0.227,0.196,north-northwest,3.6,No
2015/11/12,16:30,0.499,0.278,0.508,0.467,0.446,0.227,0.197,north,4.3,No
2015/11/12,16:40,0.502,0.279,0.504,0.467,0.446,0.227,0.198,north-northwest,4.6,No
2015/11/12,16:50,0.498,0.277,0.504,0.467,0.446,0.227,0.197,north-northwest,4.8,No
2015/11/12,17:00,0.502,0.277,0.506,0.468,0.446,0.227,0.197,north-northwest,4.5,No
2015/11/12,17:10,0.499,0.279,0.503,0.465,0.446,0.227,0.197,north-northwest,5.5,No
2015/11/12,17:20,0.499,0.278,0.506,0.467,0.446,0.227,0.197,north,5.4,No
2015/11/12,17:30,0.501,0.276,0.504,0.467,0.445,0.228,0.197,north,4.9,No
2015/11/12,17:40,0.498,0.280,0.506,0.466,0.447,0.226,0.197,north-northwest,4.0,No
2015/11/12,17:50,0.501,0.277,0.507,0.469,0.445,0.228,0.198,north-northwest,5.2,No
2015/11/12,18:00,0.498,0.279,0.503,0.465,0.446,0.227,0.197,north-northwest,5.6,No
2015/11/12,18:10,0.500,0.280,0.508,0.468,0.447,0.227,0.198,north-northwest,5.6,No
2015/11/12,18:20,0.500,0.277,0.504,0.469,0.444,0.227,0.197,north-northwest,6.3,No
2015/11/12,18:30,0.497,0.279,0.505,0.466,0.446,0.228,0.198,north-northwest,6.4,No
2015/11/12,18:40,0.499,0.279,0.505,0.470,0.446,0.227,0.198,north-northwest,6.2,No
2015/11/12,18:50,0.501,0.277,0.504,0.469,0.445,0.227,0.198,north-northwest,5.9,No
2015/11/12,19:00,0.499,0.278,0.508,0.468,0.447,0.228,0.199,north-northwest,6.3,No
2015/11/12,19:10,0.504,0.277,0.506,0.469,0.448,0.226,0.198,north-northwest,6.6,No
2015/11/12,19:20,0.499,0.277,0.506,0.469,0.445,0.227,0.198,north-northwest,6.5,No
2015/11/12,19:30,0.501,0.280,0.507,0.466,0.446,0.228,0.197,north-northwest,5.9,No
2015/11/12,19:40,0.501,0.277,0.505,0.468,0.446,0.227,0.197,north-northwest,5.6,No
2015/11/12,19:50,0.499,0.278,0.507,0.467,0.445,0.227,0.198,north-northwest,5.5,No
2015/11/12,20:00,0.501,0.279,0.506,0.466,0.447,0.228,0.198,north-northwest,5.0,No
2015/11/12,20:10,0.500,0.278,0.505,0.470,0.444,0.228,0.197,north-northwest,5.7,No
2015/11/12,20:20,0.499,0.277,0.507,0.466,0.444,0.227,0.199,north-northwest,5.9,No
2015/11/12,20:30,0.502,0.278,0.505,0.469,0.445,0.229,0.197,north-northwest,5.7,No
2015/11/12,20:40,0.499,0.278,0.505,0.469,0.446,0.228,0.198,north-northwest,6.5,No
2015/11/12,20:50,0.500,0.278,0.508,0.466,0.445,0.227,0.198,north-northwest,6.7,No
2015/11/12,21:00,0.501,0.280,0.505,0.468,0.448,0.228,0.198,north-northwest,6.4,No
2015/11/12,21:10,0.498,0.278,0.507,0.468,0.446,0.227,0.198,north-northwest,6.1,No
2015/11/12,21:20,0.500,0.277,0.506,0.468,0.445,0.228,0.199,north-northwest,5.5,No
2015/11/12,21:30,0.498,0.279,0.505,0.470,0.446,0.227,0.198,north-northwest,5.3,No
2015/11/12,21:40,0.501,0.277,0.506,0.465,0.446,0.226,0.198,north,5.6,No
2015/11/12,21:50,0.502,0.279,0.503,0.467,0.447,0.227,0.198,north,5.7,No
2015/11/12,22:00,0.499,0.277,0.507,0.468,0.446,0.228,0.197,north-northwest,5.4,No
2015/11/12,22:10,0.503,0.277,0.504,0.466,0.444,0.227,0.198,north-northwest,6.4,No
2015/11/12,22:20,0.501,0.279,0.506,0.467,0.447,0.227,0.198,north-northwest,6.0,No
2015/11/12,22:30,0.499,0.279,0.508,0.467,0.446,0.227,0.198,north-northwest,6.3,No
2015/11/12,22:40,0.501,0.278,0.505,0.467,0.446,0.227,0.198,north-northwest,5.6,No
2015/11/12,22:50,0.499,0.279,0.506,0.469,0.446,0.227,0.198,north-northwest,5.4,No
2015/11/12,23:00,0.501,0.277,0.507,0.467,0.446,0.227,0.197,north-northwest,5.8,No
2015/11/12,23:10,0.501,0.278,0.504,0.466,0.445,0.226,0.198,north,5.8,No
2015/11/12,23:20,0.500,0.278,0.507,0.469,0.447,0.227,0.198,north-northwest,5.9,No
2015/11/12,23:30,0.501,0.277,0.505,0.467,0.444,0.227,0.199,north-northwest,5.2,No
2015/11/12,23:40,0.500,0.279,0.505,0.469,0.445,0.228,0.197,north,5.0,No
2015/11/12,23:50,0.500,0.278,0.505,0.468,0.446,0.226,0.197,north,5.2,No
